XRISM

Last updated on Wed Nov 05 2025 00:02:15 GMT+0000 (Coordinated Universal Time)

1 57800U 23137A 25308.49613692 .00006894 00000+0 41101-3 0 9990 2 57800 31.0033 12.3541 0008239 218.6121 141.3929 15.09735163118842
UTC large
Height (km)
Speed (km/s)
/
Latitude / Longitude
Inclination (degrees)
Orbital Period (minutes)
Azimuth
Elevation
Range (km)
Doppler Factor

Next 0 passes for location: London (51.5072 / 0.1276)

Sorry there are no passes over London.